Regional Weather Roundup
Issued by NWS

Home | Current Version | Previous Version | Text Only | Print | Product List | Glossary Off
Versions: 1 2 3 4 5 6 7 8 9 10 11 12 13 14 15 16 17 18 19 20 21 22 23 24 25 26 27 28 29 30 31 32 33 34 35 36 37 38 39 40 41 42 43 44 45 46 47 48 49 50

000
ASUS44 KMEG 190100
RWRTN
TENNESSEE HOURLY STATE WEATHER ROUNDUP
NATIONAL WEATHER SERVICE MEMPHIS TN
800 PM CDT FRI APR 18 2014

TNZ002-004-019-021-049-052-054-088>092-190200-
WEST TENNESSEE

CITY           SKY/WX    TMP DP  RH WIND       PRES   REMARKS
MEMPHIS INTL   MOCLDY    69  50  50 NE8       30.16R
NWS MEMPHIS      N/A     67 N/A N/A MISG        N/A
JACKSON        CLOUDY    65  49  56 NE5       30.17S
DYERSBURG      CLOUDY    64  45  48 CALM      30.18S
UNION CITY     CLOUDY    64  48  55 CALM      30.17R
LEXINGTON      CLOUDY    66  46  48 N3        30.16S
$$

TNZ008-025-027-028-033-062-065-066-190200-
NORTH MIDDLE TENNESSEE

CITY           SKY/WX    TMP DP  RH WIND       PRES   REMARKS
NASHVILLE      CLOUDY    64  45  49 E3        30.18S
CLARKSVILLE    MOCLDY    64  47  53 N3        30.18R
CROSSVILLE     CLOUDY    57  38  48 SE3       30.20S
$$

TNZ061-075-076-078-094-096-097-190200-
SOUTH MIDDLE TENNESSEE

CITY           SKY/WX    TMP DP  RH WIND       PRES   REMARKS
TULLAHOMA      CLEAR     57  46  67 CALM      30.19R
WINCHESTER     CLEAR     57  46  67 CALM      30.18R
COLUMBIA       CLEAR     61  54  77 CALM      30.17R
$$

TNZ017-018-042-046-047-190200-
NORTHEAST TENNESSEE

CITY           SKY/WX    TMP DP  RH WIND       PRES   REMARKS
TRI CITIES     CLOUDY    54  40  59 CALM      30.22S
ELIZABETHTON   CLEAR     52  41  66 CALM      30.22F
$$

TNZ012-013-036-069-073-074-190200-
CENTRAL EAST TENNESSEE

CITY           SKY/WX    TMP DP  RH WIND       PRES   REMARKS
KNOXVILLE      CLOUDY    57  41  55 NE6       30.17F
OAK RIDGE      CLOUDY    60  40  47 CALM      30.20S
$$

TNZ083-085-099-190200-
SOUTHEAST TENNESSEE

CITY           SKY/WX    TMP DP  RH WIND       PRES   REMARKS
CHATTANOOGA    CLOUDY    60  43  53 N5        30.17S
$$

SKY/WX REPORTED AS FAIR MEANS FEW OR NO CLOUDS BELOW
12 THOUSAND FEET.




USA.gov is the U.S. government's official web portal to all federal, state and local government web resources and services.